Surat Thani, Thailand

11:02 AM +07 on February 26, 2018 (GMT +0700)
Surat Thani

Weather History for VTSB - October, 2013

Change the Weather History Date:

Thursday, October 10, 2013

  Actual Average Record
Temperature  
Mean Temperature 83 °F -  
Max Temperature 92 °F 87 °F - ()
Min Temperature 74 °F 73 °F - ()
Cooling Degree Days 18    
Growing Degree Days 33 (Base 50)    
Moisture  
Dew Point 76 °F    
Average Humidity 83    
Maximum Humidity 100    
Minimum Humidity 62    
Precipitation  
Precipitation 0.00 in 0.36 in - ()
Sea Level Pressure  
Sea Level Pressure 29.86 in    
Wind  
Wind Speed 3 mph ()    
Max Wind Speed 9 mph    
Max Gust Speed -    
Visibility 5.5 miles    
Events      
T = Trace of Precipitation, MM = Missing Value Source: Averaged Metar Reports

Daily Weather History Graph

Daily Weather History Graph

Search for Another Location

Airport or City:

Trip Planner

Search our weather history database for the weather conditions in past years. The results will help you decide how hot, cold, wet, or windy it might be!

Date:

Astronomy

Oct. 10, 2013 Rise Set
Actual Time 6:11 AM +07 6:09 PM +07
Civil Twilight 5:50 AM +07 6:30 PM +07
Nautical Twilight 5:25 AM +07 6:54 PM +07
Astronomical Twilight 5:01 AM +07 7:19 PM +07
Moon 10:52 AM +07 (10/10) 10:53 PM +07 (10/10)
Length of Visible Light 12h 40m
Length of Day
11h 57m
Waxing Crescent, 30% of the Moon is Illuminated
Oct 10
Waxing Crescent
Oct 12
First Quarter
Oct 19
Full
Oct 27
Last Quarter
Nov 3
New

Hourly Weather History & Observations

Time (+07) Temp. Heat Index Dew Point Humidity Pressure Visibility Wind Dir Wind Speed Gust Speed Precip Events Conditions
1:00 AM 76 °F - 74 °F 94% 29.90 in 4 mi Calm Calm - -   Mist
1:00 AM 73.4 °F - 73.4 °F 100% 29.89 in 4.3 mi Calm Calm - N/A   Partly Cloudy
6:00 AM 73.4 °F - 73.4 °F 100% 29.89 in 3.1 mi WNW 3.5 mph - N/A   Overcast
7:00 AM 75 °F - 75 °F 100% 29.88 in 6 mi Calm Calm - -   Scattered Clouds
7:00 AM 75.2 °F - 75.2 °F 100% 29.89 in 5.0 mi Calm Calm - N/A   Mostly Cloudy
8:00 AM 77.0 °F - 77.0 °F 100% 29.89 in 6.2 mi SSW 3.5 mph - N/A   Mostly Cloudy
10:00 AM 84.2 °F 94.1 °F 77.0 °F 79% 29.92 in 6.2 mi West 3.5 mph - N/A   Mostly Cloudy
11:00 AM 87.8 °F 99.7 °F 77.0 °F 70% 29.92 in 6.2 mi NW 3.5 mph - N/A   Mostly Cloudy
12:00 PM 87.8 °F 97.6 °F 75.2 °F 66% 29.89 in 6.2 mi WSW 9.2 mph - N/A   Mostly Cloudy
1:00 PM 87 °F - 77 °F 64% 29.86 in 6 mi West 3.5 mph - -   Partly Cloudy
1:00 PM 87.8 °F 97.6 °F 75.2 °F 66% 29.86 in 6.2 mi SW 9.2 mph - N/A   Mostly Cloudy
2:00 PM 89.6 °F 99.8 °F 75.2 °F 62% 29.83 in 6.2 mi WSW 8.1 mph - N/A   Mostly Cloudy
3:00 PM 87.8 °F 97.6 °F 75.2 °F 66% 29.83 in 6.2 mi West 8.1 mph - N/A   Mostly Cloudy
4:00 PM 87.8 °F 97.6 °F 75.2 °F 66% 29.80 in 6.2 mi WNW 9.2 mph - N/A   Mostly Cloudy
5:00 PM 84.2 °F 92.3 °F 75.2 °F 74% 29.80 in 6.2 mi WNW 5.8 mph - N/A   Mostly Cloudy
6:00 PM 84.2 °F 96.1 °F 78.8 °F 84% 29.83 in 6.2 mi NNW 3.5 mph - N/A   Mostly Cloudy
7:00 PM 81 °F - 77 °F 84% 29.84 in 6 mi Calm Calm - -   Scattered Clouds
7:00 PM 80.6 °F 88.1 °F 78.8 °F 94% 29.83 in 5.0 mi Calm Calm - N/A   Scattered Clouds
8:00 PM 78.8 °F - 78.8 °F 100% 29.86 in 4.3 mi Calm Calm - N/A   Partly Cloudy
9:00 PM 77.0 °F - 77.0 °F 100% 29.89 in 4.3 mi Calm Calm - N/A   Partly Cloudy